Wind_Speed
8 3 3 10 5 4 6 10 8 9 7 5 5 6 8 7 6 5 5 7 5 5 5 10 11 15 14 13 14 12 10 10 13 18 14 13 9 8 7 6 6 6 8 8 8 10 9 10 12
10 10 8 5 2 2 7 5 6 5 6 6 5 4 4 4 4 6 5 7 6 7 7 10 10 15 19 15 14 16 11 11 15 20 16 13 9 8 7 7 7 6 5 6 7 8 8 10 11
10 8 9 5 1 2 8 7 4 5 6 6 6 4 6 5 5 4 4 4 5 5 6 8 12 13 19 16 14 13 15 14 16 21 15 10 8 8 7 9 5 4 6 8 8 8 8 9 8
8 5 7 7 3 2 4 9 7 5 5 5 4 3 6 8 6 5 5 7 7 4 4 7 11 11 14 15 10 10 15 15 22 18 14 10 8 6 6 9 12 10 9 9 9 10 8 8 7
7 8 3 4 4 2 2 5 4 3 4 4 4 3 5 8 7 6 9 9 6 1 4 7 12 10 10 11 14 17 19 16 29 18 14 11 9 10 12 12 9 10 9 9 10 10 8 8 8
4 2 2 3 4 7 6 4 2 3 5 3 5 3 4 9 9 4 4 6 4 2 2 4 10 9 14 12 13 18 19 23 21 13 14 10 10 13 11 10 8 8 8 8 9 9 8 8 8
2 4 6 3 3 4 3 4 4 4 4 4 5 4 2 5 9 8 6 5 4 3 2 9 14 15 14 14 12 15 18 23 20 17 14 16 16 15 10 8 8 7 7 7 8 8 9 8 9
9 11 11 8 1 3 2 4 5 4 3 6 4 2 2 3 7 7 4 5 4 7 7 7 13 27 24 23 26 21 19 17 19 19 17 18 18 13 9 9 7 7 6 7 9 9 9 10 11
7 4 19 11 5 2 3 7 5 5 6 7 6 3 5 5 6 5 3 4 5 9 9 7 9 15 15 16 18 17 18 16 17 18 17 17 15 11 9 8 8 6 7 8 9 9 10 11 13
6 6 22 14 8 3 5 9 4 4 7 8 7 6 7 7 8 9 7 5 6 8 11 11 9 11 12 14 15 14 15 15 15 14 13 13 11 10 8 8 9 7 8 8 9 9 10 12 12
7 6 21 8 10 6 7 6 6 6 8 12 7 7 11 12 12 9 7 7 7 9 13 12 12 11 13 13 12 11 12 13 13 13 12 12 11 11 10 11 7 7 7 7 8 9 10 11 13
12 4 16 21 13 8 9 4 2 5 9 13 8 8 10 13 9 5 5 6 9 9 11 11 11 12 13 14 14 13 13 14 13 13 13 13 14 13 12 11 10 7 8 6 7 8 9 13 14
9 9 22 17 15 12 6 4 8 5 9 13 10 10 12 12 12 13 9 9 14 11 9 9 10 11 11 12 14 14 13 12 13 14 14 15 15 13 11 12 11 9 9 7 8 8 13 14 13
9 16 11 12 19 15 10 7 8 6 8 14 11 11 15 12 11 11 11 15 15 12 9 8 8 11 11 12 14 13 13 14 15 14 14 14 13 12 12 15 14 12 11 8 9 11 12 11 9
11 11 10 9 7 11 11 9 6 7 6 11 10 11 13 14 13 11 11 12 12 8 7 8 9 13 13 13 15 15 14 15 16 14 14 14 14 15 14 16 14 13 11 10 10 10 9 8 8
7 7 6 8 4 4 12 18 10 8 8 11 12 9 12 13 12 11 10 12 11 9 8 8 10 16 16 14 16 16 15 18 16 15 14 15 17 15 14 15 13 13 13 10 11 9 7 5 6
5 2 6 3 2 4 5 6 14 11 9 8 10 9 8 11 10 11 9 9 9 9 9 12 15 16 16 14 16 17 16 18 18 16 16 16 17 15 12 13 13 13 11 10 9 8 6 7 7
7 4 3 2 1 4 7 4 13 11 4 9 6 5 5 7 11 9 9 9 8 10 11 12 14 16 16 16 16 16 16 16 16 17 16 16 15 14 12 11 11 11 9 8 7 7 6 6 7
12 6 3 5 2 6 7 5 7 13 12 8 5 7 7 6 11 12 11 9 8 9 10 9 13 15 16 16 18 16 16 16 14 14 18 17 16 13 11 11 9 10 9 6 5 5 4 3 4
14 13 12 10 8 6 6 7 8 11 9 5 10 14 10 11 10 11 13 12 10 8 10 11 10 10 15 17 17 16 16 17 15 15 16 16 15 12 10 10 10 10 10 5 6 4 1 4 4
10 9 9 9 11 9 7 7 6 5 5 6 11 13 13 11 11 10 11 12 12 9 8 11 10 10 11 16 20 19 18 18 17 16 16 16 14 11 13 13 11 10 9 5 3 2 4 2 5
8 9 8 8 11 11 13 9 7 4 4 4 10 16 15 13 12 14 12 9 10 11 9 11 11 11 12 16 17 18 18 17 16 17 17 15 13 12 14 14 16 9 9 6 4 5 2 1 3
9 8 7 9 9 11 11 11 12 10 9 8 10 10 14 16 15 14 15 14 12 11 12 12 11 11 11 15 19 16 19 19 19 20 20 16 14 12 11 15 14 13 12 8 6 5 1 1 1
9 10 10 7 7 8 11 11 14 15 15 14 11 11 7 9 16 15 15 14 15 14 13 14 14 12 10 12 15 15 18 17 21 21 21 17 16 11 11 12 10 10 12 9 5 3 2 3 2
7 7 7 9 7 8 12 11 12 16 17 20 19 15 12 11 9 15 14 17 19 19 17 16 15 15 11 13 13 14 16 16 22 18 17 15 14 11 10 10 10 11 10 8 6 4 5 2 3
8 7 7 8 8 9 11 12 13 16 19 21 21 19 18 15 16 14 23 20 20 20 20 20 17 15 15 14 15 15 15 18 19 19 18 16 14 12 11 10 10 11 9 7 5 5 5 4 4
7 6 8 9 8 8 9 9 10 14 19 19 19 21 23 20 20 17 22 23 23 21 20 20 20 18 16 16 17 17 15 16 18 19 18 16 15 13 12 12 11 10 10 8 7 7 6 5 4
10 9 8 9 10 11 7 9 11 14 15 15 17 19 20 23 22 23 20 26 25 24 23 22 22 22 20 18 18 18 20 17 17 17 16 15 16 15 14 13 12 11 10 10 10 7 7 6 5
12 10 9 11 11 14 12 8 12 13 13 12 11 15 18 20 22 26 24 30 29 28 25 24 23 22 22 22 21 19 20 17 19 18 16 16 15 14 14 15 14 13 13 13 11 10 9 7 6
9 11 11 10 10 11 13 10 13 11 10 15 14 12 14 23 19 26 29 27 36 31 28 26 25 24 23 24 22 22 21 19 18 16 16 16 15 14 15 16 16 12 12 12 11 11 11 10 9
Wind_Direction
16 350 40 30 94 104 90 81 96 92 91 90 102 152 146 152 152 165 174 179 195 217 191 195 213 209 212 210 209 226 230 207 187 192 194 180 173 163 171 156 145 144 133 121 110 107 110 117 120
38 76 61 42 140 110 99 113 59 74 86 84 92 115 162 147 171 175 170 195 210 221 213 202 214 210 201 196 219 216 212 200 200 204 190 181 179 179 173 161 161 160 149 115 108 110 109 114 109
56 68 43 25 137 83 99 86 89 101 96 88 90 118 153 146 137 151 169 173 193 203 204 209 183 188 204 212 219 204 197 215 211 188 188 179 176 175 182 172 158 154 129 119 111 102 101 108 108
69 77 34 15 30 112 73 70 68 95 96 102 105 145 149 148 140 145 163 165 152 119 148 211 198 186 188 199 187 192 202 220 195 177 179 179 171 196 187 153 117 112 107 100 98 106 108 106 107
61 70 51 25 351 4 61 46 37 84 100 92 98 130 172 146 119 147 172 168 137 80 224 214 209 199 198 200 205 207 215 214 183 178 169 155 145 117 91 101 109 108 99 103 111 111 113 107 99
27 64 4 6 297 314 11 95 89 102 61 65 87 82 169 144 121 125 110 112 119 83 119 189 203 182 192 192 185 203 213 216 207 172 148 157 165 123 120 118 112 114 112 119 116 109 109 103 91
300 304 217 186 324 356 25 69 93 113 70 66 63 92 171 159 120 103 99 107 149 111 66 187 194 187 181 185 179 163 158 161 134 124 113 107 115 120 123 121 128 122 114 116 100 101 100 92 76
309 308 192 189 85 97 110 50 77 73 109 73 76 119 140 148 111 103 98 119 146 119 99 114 163 154 145 145 144 134 117 105 104 110 113 114 120 130 121 121 119 102 108 93 83 88 85 69 70
316 316 169 168 145 89 93 81 68 87 98 88 84 89 99 101 105 100 80 151 151 136 120 114 99 104 108 109 108 112 115 117 112 113 120 123 128 127 123 120 120 109 104 104 104 93 74 70 66
352 192 160 157 136 110 118 101 84 81 87 87 90 95 94 96 101 90 114 126 148 140 127 124 108 114 113 115 117 120 120 119 119 122 122 124 130 132 130 123 119 105 112 115 104 88 78 71 60
305 190 178 193 125 112 142 124 60 84 90 77 84 99 110 96 95 102 110 126 143 136 122 123 132 137 133 133 132 129 130 136 136 134 137 139 144 137 128 134 121 106 96 103 96 88 79 66 52
24 193 177 161 144 141 193 211 124 72 95 85 84 105 109 93 88 110 153 152 161 135 125 134 136 144 151 148 140 143 146 151 141 142 149 151 155 143 137 131 129 114 117 117 96 84 73 64 49
69 111 166 159 162 142 151 158 136 101 98 90 99 103 100 88 86 91 85 162 140 147 142 147 152 155 156 142 137 147 148 146 149 155 158 162 148 141 153 158 143 136 131 119 100 80 64 67 55
84 65 76 182 177 163 157 135 133 125 110 103 102 107 113 111 108 98 87 117 136 142 148 164 160 167 153 147 144 142 149 152 156 163 159 143 139 150 165 164 144 138 126 113 96 85 73 70 72
97 71 72 62 122 155 158 154 112 127 93 112 113 113 118 121 117 120 108 118 144 136 146 163 160 166 159 159 151 152 155 153 158 161 151 141 147 143 140 148 141 132 122 117 110 90 88 77 56
111 90 74 77 98 137 191 173 154 136 117 107 114 117 120 120 118 125 127 135 139 133 137 139 142 153 156 159 153 146 152 151 148 153 152 153 152 153 140 144 147 136 138 131 112 106 96 74 47
204 146 148 98 51 114 96 186 129 137 131 113 117 122 130 129 130 136 136 146 140 136 122 117 123 142 149 150 147 139 150 150 150 156 160 156 162 164 157 147 148 142 136 133 128 117 97 63 40
210 200 165 94 8 126 114 140 154 159 160 112 125 144 149 155 141 150 147 142 134 142 131 127 136 141 147 150 142 143 152 145 156 166 158 159 165 171 164 150 146 140 147 151 141 120 86 59 35
203 211 243 295 277 145 149 134 169 162 189 183 164 190 193 187 162 162 148 142 147 148 136 131 137 153 154 154 154 160 150 151 147 153 160 162 161 172 165 155 154 170 162 155 154 127 124 81 10
226 237 256 254 211 146 153 143 126 152 131 292 209 197 201 188 179 170 162 154 160 157 144 148 129 146 160 157 158 158 148 148 158 158 161 160 157 164 165 169 172 176 175 135 146 151 252 98 59
239 256 250 237 222 195 187 179 177 181 140 181 165 179 185 195 187 182 165 162 159 161 159 150 144 151 159 170 163 163 152 152 164 160 161 163 157 171 177 187 200 190 190 200 153 144 126 101 19
228 247 246 235 222 210 214 203 192 204 185 178 166 182 181 188 194 194 193 194 172 165 174 152 156 151 153 175 178 165 154 150 155 158 154 152 167 182 190 198 190 205 223 212 178 165 129 26 15
247 255 262 239 222 226 233 235 223 204 208 200 196 197 213 201 206 202 195 198 193 190 179 169 164 163 156 162 176 171 160 152 155 156 162 163 164 172 180 170 184 200 195 199 171 146 128 285 107
256 263 251 236 210 216 224 236 254 251 231 231 228 238 236 213 223 218 201 192 199 200 186 186 167 164 173 165 173 171 167 171 172 164 167 172 176 172 165 177 186 188 193 205 217 227 220 191 160
253 244 248 255 250 232 244 239 242 248 247 237 234 236 238 242 252 230 215 204 194 194 198 192 185 174 178 179 173 171 173 173 175 175 174 183 185 180 175 169 173 172 177 189 207 202 199 157 131
258 262 267 275 263 257 246 247 242 244 246 247 247 245 245 238 251 259 218 212 203 197 202 197 196 189 181 180 183 186 170 174 189 188 189 189 189 186 182 175 172 172 180 192 190 187 174 159 151
264 276 260 269 282 282 280 266 258 248 245 249 256 257 252 244 240 254 225 203 209 202 204 206 200 202 200 195 191 188 195 191 192 197 198 189 186 182 179 184 190 186 182 178 179 184 171 169 162
256 257 270 274 289 296 280 274 271 258 258 255 254 264 260 258 260 260 233 211 201 211 203 207 205 206 207 210 207 198 198 211 205 202 200 198 195 185 184 187 190 191 191 190 190 188 177 167 183
248 265 262 264 275 289 290 275 280 285 272 274 272 266 256 238 248 253 253 217 210 207 211 209 209 208 209 213 215 211 210 207 205 206 202 201 206 196 190 191 196 207 211 201 195 191 191 190 207
267 276 275 282 295 294 302 289 286 291 282 272 278 275 252 235 239 236 238 248 223 210 208 208 214 208 213 218 219 223 218 216 219 218 210 210 214 215 212 214 219 217 203 202 190 199 201 204 215
Height
5877 5876 5876 5876 5878 5875 5875 5875 5873 5872 5872 5873 5874 5875 5875 5875 5875 5877 5876 5877 5878 5879 5881 5883 5884 5886 5887 5887 5888 5890 5892 5894 5895 5896 5897 5898 5900 5901 5902 5903 5904 5905 5907 5908 5907 5908 5909 5910 5911
5877 5876 5877 5877 5877 5876 5875 5875 5875 5874 5872 5873 5873 5874 5875 5875 5875 5875 5877 5878 5879 5879 5880 5882 5883 5883 5885 5886 5887 5888 5891 5893 5894 5894 5896 5898 5900 5901 5901 5903 5905 5906 5908 5908 5909 5910 5912 5912 5912
5877 5877 5877 5877 5876 5877 5876 5875 5875 5874 5873 5873 5873 5874 5875 5875 5876 5876 5877 5878 5878 5879 5879 5880 5882 5881 5883 5886 5886 5887 5889 5892 5893 5891 5896 5898 5901 5902 5903 5904 5907 5908 5909 5909 5911 5913 5914 5915 5914
5878 5879 5879 5878 5877 5877 5877 5875 5875 5874 5873 5873 5873 5873 5875 5875 5875 5876 5877 5877 5878 5877 5878 5877 5879 5881 5882 5883 5885 5887 5889 5891 5892 5891 5895 5899 5901 5902 5903 5905 5908 5910 5911 5911 5913 5914 5915 5916 5917
5879 5879 5879 5879 5878 5878 5877 5875 5874 5874 5874 5873 5872 5873 5874 5874 5875 5876 5876 5877 5876 5876 5876 5876 5878 5880 5881 5882 5884 5885 5887 5889 5889 5890 5895 5899 5902 5905 5906 5909 5910 5911 5912 5913 5914 5915 5917 5918 5919
5879 5880 5881 5880 5879 5878 5876 5875 5875 5874 5873 5872 5872 5873 5875 5874 5873 5874 5875 5876 5876 5876 5876 5877 5878 5880 5879 5881 5882 5885 5887 5890 5888 5893 5894 5899 5903 5906 5910 5911 5912 5913 5915 5916 5917 5918 5919 5920 5921
5877 5879 5879 5879 5879 5879 5877 5876 5876 5874 5874 5873 5872 5873 5875 5875 5874 5875 5876 5877 5877 5877 5877 5878 5878 5878 5879 5881 5883 5886 5888 5889 5889 5893 5897 5902 5906 5910 5913 5913 5914 5916 5918 5918 5919 5921 5922 5923 5923
5875 5874 5876 5878 5879 5880 5878 5877 5876 5875 5874 5873 5873 5874 5875 5875 5875 5876 5878 5878 5877 5878 5877 5879 5879 5877 5882 5883 5883 5886 5888 5890 5893 5895 5901 5905 5908 5911 5914 5915 5916 5918 5920 5921 5922 5924 5925 5925 5925
5875 5873 5874 5877 5879 5879 5878 5878 5877 5876 5875 5874 5874 5874 5875 5875 5876 5876 5878 5879 5879 5880 5880 5881 5879 5879 5880 5881 5882 5886 5890 5894 5898 5900 5904 5907 5910 5913 5915 5916 5918 5920 5921 5922 5923 5925 5926 5927 5926
5874 5874 5873 5876 5878 5879 5879 5878 5878 5877 5876 5875 5875 5876 5876 5877 5876 5877 5878 5879 5880 5881 5882 5883 5881 5882 5883 5884 5886 5890 5893 5896 5899 5902 5906 5909 5913 5914 5916 5917 5920 5921 5923 5924 5926 5927 5928 5928 5928
5873 5872 5872 5875 5878 5878 5880 5879 5879 5878 5877 5876 5877 5876 5877 5877 5877 5877 5879 5879 5881 5883 5883 5884 5885 5886 5886 5888 5891 5894 5896 5898 5901 5905 5908 5911 5914 5915 5918 5919 5921 5923 5925 5927 5928 5928 5929 5930 5930
5871 5869 5870 5875 5876 5878 5879 5879 5879 5879 5878 5876 5878 5878 5879 5879 5879 5879 5879 5880 5882 5884 5884 5885 5887 5888 5889 5891 5893 5895 5897 5901 5903 5906 5910 5913 5916 5917 5918 5920 5922 5924 5927 5929 5929 5930 5931 5931 5930
5872 5868 5871 5874 5876 5877 5879 5879 5879 5879 5879 5877 5878 5880 5881 5881 5880 5880 5881 5880 5883 5885 5886 5887 5888 5891 5892 5894 5895 5896 5898 5901 5905 5909 5911 5915 5915 5917 5919 5921 5923 5925 5928 5930 5931 5932 5932 5932 5932
5875 5872 5874 5872 5875 5876 5878 5879 5879 5880 5879 5878 5879 5881 5881 5882 5882 5882 5883 5884 5886 5886 5886 5887 5889 5892 5894 5895 5896 5897 5900 5903 5907 5911 5913 5915 5916 5917 5919 5922 5924 5927 5929 5931 5933 5933 5933 5933 5932
5877 5876 5876 5875 5873 5876 5878 5880 5879 5880 5880 5880 5880 5881 5882 5883 5884 5885 5886 5887 5888 5888 5887 5887 5890 5892 5895 5896 5898 5900 5902 5905 5908 5912 5914 5915 5918 5920 5921 5924 5926 5928 5931 5932 5933 5934 5934 5933 5933
5878 5878 5878 5877 5877 5878 5879 5879 5880 5880 5881 5881 5882 5884 5883 5885 5886 5887 5889 5890 5890 5891 5889 5889 5890 5892 5895 5898 5900 5901 5903 5905 5909 5912 5914 5917 5919 5921 5923 5925 5926 5929 5930 5931 5933 5934 5934 5933 5934
5878 5879 5879 5879 5878 5879 5878 5878 5879 5881 5882 5882 5883 5885 5885 5886 5887 5888 5889 5891 5892 5892 5891 5890 5891 5893 5895 5898 5900 5900 5902 5906 5909 5913 5916 5918 5920 5922 5924 5926 5928 5930 5931 5932 5933 5934 5934 5934 5934
5878 5879 5879 5879 5879 5879 5879 5879 5881 5880 5881 5881 5883 5885 5886 5886 5887 5888 5890 5891 5893 5893 5892 5892 5893 5894 5896 5898 5900 5901 5903 5907 5910 5914 5916 5919 5922 5924 5926 5927 5929 5931 5931 5933 5933 5934 5934 5933 5933
5878 5878 5879 5879 5880 5879 5878 5879 5879 5880 5880 5881 5883 5885 5886 5888 5889 5889 5890 5892 5894 5894 5894 5894 5894 5895 5896 5898 5899 5902 5903 5907 5911 5914 5918 5921 5923 5925 5927 5928 5930 5931 5932 5933 5933 5933 5934 5934 5933
5876 5878 5878 5879 5879 5879 5879 5880 5880 5879 5881 5881 5882 5883 5886 5888 5890 5890 5890 5891 5894 5895 5895 5895 5895 5896 5898 5899 5901 5902 5904 5907 5911 5915 5918 5921 5923 5925 5927 5930 5930 5931 5932 5933 5932 5932 5933 5934 5934
5874 5875 5876 5876 5876 5878 5878 5880 5880 5881 5880 5880 5881 5882 5885 5888 5889 5891 5891 5891 5893 5895 5896 5897 5897 5898 5899 5900 5901 5903 5905 5907 5910 5914 5918 5921 5922 5924 5927 5929 5930 5930 5931 5932 5933 5932 5933 5933 5934
5872 5872 5873 5874 5875 5877 5878 5880 5880 5880 5880 5881 5882 5883 5884 5885 5887 5889 5891 5891 5892 5895 5897 5897 5897 5899 5900 5900 5902 5904 5905 5907 5911 5914 5918 5920 5921 5923 5925 5927 5928 5929 5930 5932 5933 5932 5933 5933 5934
5870 5871 5871 5873 5874 5874 5875 5878 5879 5880 5880 5881 5883 5884 5884 5884 5886 5888 5889 5890 5890 5894 5897 5897 5897 5900 5900 5901 5902 5905 5906 5907 5911 5914 5918 5920 5922 5923 5924 5925 5926 5927 5929 5930 5931 5932 5934 5932 5933
5868 5869 5869 5870 5871 5873 5873 5874 5874 5876 5878 5878 5880 5882 5883 5884 5884 5885 5887 5890 5890 5892 5895 5897 5897 5900 5902 5903 5904 5905 5906 5909 5912 5915 5917 5920 5922 5922 5923 5924 5926 5927 5928 5929 5931 5933 5933 5933 5933
5867 5868 5868 5869 5869 5870 5870 5872 5872 5872 5873 5874 5876 5878 5880 5881 5882 5884 5885 5887 5890 5890 5893 5895 5896 5898 5901 5902 5904 5906 5908 5909 5913 5914 5917 5919 5921 5923 5924 5924 5926 5927 5928 5928 5930 5931 5932 5933 5935
5865 5866 5866 5865 5866 5867 5867 5868 5869 5869 5869 5870 5872 5874 5876 5878 5878 5880 5882 5884 5886 5889 5891 5894 5895 5897 5899 5901 5904 5906 5907 5911 5913 5915 5916 5918 5919 5921 5921 5923 5924 5926 5927 5928 5930 5932 5932 5933 5935
5863 5863 5864 5863 5864 5864 5864 5865 5865 5864 5865 5866 5868 5870 5871 5873 5873 5874 5877 5880 5883 5886 5888 5890 5893 5896 5898 5900 5902 5904 5906 5908 5911 5914 5916 5916 5917 5918 5920 5921 5922 5924 5925 5927 5929 5932 5934 5934 5934
5860 5862 5862 5861 5861 5860 5861 5860 5859 5860 5861 5863 5864 5864 5866 5867 5868 5869 5872 5876 5879 5883 5885 5888 5892 5894 5896 5899 5901 5902 5904 5906 5909 5911 5913 5916 5916 5917 5918 5920 5921 5923 5924 5925 5927 5930 5931 5933 5933
5858 5858 5859 5859 5858 5857 5856 5857 5856 5856 5857 5858 5859 5860 5861 5864 5865 5866 5867 5871 5873 5878 5883 5886 5889 5892 5894 5896 5899 5901 5902 5903 5905 5908 5910 5913 5915 5915 5916 5918 5919 5921 5922 5924 5926 5928 5930 5929 5930
5854 5854 5854 5855 5855 5854 5853 5854 5851 5852 5853 5852 5853 5855 5855 5858 5859 5862 5863 5863 5867 5871 5876 5880 5884 5887 5889 5893 5896 5898 5900 5901 5903 5905 5907 5909 5911 5913 5915 5916 5917 5919 5920 5921 5923 5924 5926 5927 5928